Regional Weather Roundup
Issued by NWS Sterling, VA

Home | Current Version | Previous Version | Text Only | Print | Product List | Glossary On
Versions: 1 2 3 4 5 6 7 8 9 10 11 12 13 14 15 16 17 18 19 20 21 22 23 24 25 26 27 28 29 30 31 32 33 34 35 36 37 38 39 40 41 42 43 44 45 46 47 48 49 50
000
ASUS41 KLWX 220910
RWRLWX

REGIONAL WEATHER ROUNDUP
NATIONAL WEATHER SERVICE BALTIMORE MD/WASHINGTON DC
500 AM EDT TUE JUL 22 2014

Note: "FAIR" indicates few or no clouds below 12,000 feet
with no significant weather and/or obstructions to visibility.
 TC=TEMPERATURE CELSIUS

 * =Non NWS site. Station does not report precipitation (e.g. rain,
    snow, etc.), thunder, or fog.

DCZ001-MDZ009-015-VAZ040>042-051-053>054-221000-
WASHINGTON METRO
  /KDAA//-FT BELVOIR

CITY           SKY/WX    TMP DP  RH WIND       PRES   REMARKS
WASHINGTON NAT MOCLDY    75  70  83 S6        30.17R
DULLES         MOCLDY    71  69  93 S3        30.16S
ANDREWS AFB    PTCLDY    68  68  99 S5        30.16S
QUANTICO       MOCLDY    74  70  87 SW8       30.17S
COLLEGE PARK*  PTCLDY    70  70 100 CALM      30.16R
LEESBURG*      CLOUDY    72  72 100 S3        30.16S
MANASSAS*      CLOUDY    72  70  94 S3        30.16S
GAITHERSBURG*  MOCLDY    70  66  88 CALM      30.20S

$$

MDZ006>007-011-014-221000-
BALTIMORE METRO

CITY           SKY/WX    TMP DP  RH WIND       PRES   REMARKS
BWI AIRPORT    PTCLDY    70  68  93 CALM      30.16S
MD SCIENCE CTR   N/A     73  69  87 MISG      30.17R
MARTIN STATE   CLEAR     73  72  94 CALM      30.18R
ANNAPOLIS      PTCLDY    72  68  87 CALM      30.15S
FORT MEADE*    PTCLDY    64  63  94 CALM      30.18S

$$

MDZ012-015-019>023-221000-
MARYLAND EASTERN SHORE

CITY           SKY/WX    TMP DP  RH WIND       PRES   REMARKS
OCEAN CITY     CLEAR     62  61  96 CALM      30.17R
SALISBURY      NOT AVBL
BAY BRIDGE AP*   N/A     72  70  94 CALM      30.16S
CAMBRIDGE*     CLEAR     68  64  88 CALM      30.17R
EASTON*        CLEAR     70  70 100 CALM      30.20S

$$

MDZ017>025-221000-
SOUTHERN MARYLAND

CITY           SKY/WX    TMP DP  RH WIND       PRES   REMARKS
PATUXENT RIVER MOCLDY    67  65  93 CALM      30.16S
ST INIGOES     CLEAR     68  64  87 CALM      30.15S
LEONARDTOWN*   PTCLDY    68  64  88 MISG        N/A

$$

MDZ003>005-221000-
NORTH CENTRAL MARYLAND

CITY           SKY/WX    TMP DP  RH WIND       PRES   REMARKS
FREDERICK*     CLOUDY    70  70 100 CALM      30.19R
HAGERSTOWN APT CLOUDY    71  68  90 CALM      30.17R
WESTMINSTER*   CLOUDY    70  70 100 CALM      30.19R

$$

MDZ501>502-221000-
WESTERN MARYLAND

CITY           SKY/WX    TMP DP  RH WIND       PRES   REMARKS
OAKLAND*       CLEAR     63 N/A N/A S8        30.24R FOG
CUMBERLAND*    CLOUDY    72  70  94 CALM      30.19S

$$

VAZ025>031-221000-
SHENANDOAH VALLEY

CITY           SKY/WX    TMP DP  RH WIND       PRES   REMARKS
WINCHESTER*    CLEAR     68  68 100 CALM      30.16S FOG
STAUNTON*      CLOUDY    70  68  93 CALM      30.20R

$$

WVZ021-048>050-054>055-221000-
EASTERN WEST VIRGINIA PANHANDLE

CITY           SKY/WX    TMP DP  RH WIND       PRES   REMARKS
MARTINSBURG    PTCLDY    69  65  86 CALM      30.16S
PETERSBURG*    CLOUDY    66  62  86 CALM      30.17S FOG

$$

VAZ036>039-050-221000-
CENTRAL FOOTHILLS

CITY           SKY/WX    TMP DP  RH WIND       PRES   REMARKS
CHARLOTTESVILL CLOUDY    72  70  93 S3        30.16S
ORANGE*        CLOUDY    72  70  94 CALM      30.17F

$$

VAZ055>057-221000-
NORTH AND CENTRAL PIEDMONT

CITY           SKY/WX    TMP DP  RH WIND       PRES   REMARKS
FREDERICKSBRG* CLOUDY    71  71 100 CALM      30.16R FOG
STAFFORD*      CLOUDY    70  70 100 CALM      30.20S

$$

NCZ024-NYZ072-PAZ021-071-VAZ022-071-221000-
OTHER REGIONAL OBSERVATIONS

CITY           SKY/WX    TMP DP  RH WIND       PRES   REMARKS
NEW YORK CITY  CLEAR     71  60  68 W3        30.19S
PHILADELPHIA   CLEAR     70  62  76 S3        30.18R
PITTSBURGH     CLEAR     70  67  90 CALM      30.14R
ROANOKE        CLOUDY    71  69  93 SE5       30.19R
RICHMOND       MOCLDY    70  68  93 CALM      30.15S
RALEIGH        CLOUDY    73  70  90 NE8       30.14S FOG

$$

ANZ530>537-221000-
MARINE OBSERVATIONS

STATION/POSITION TIME  TEMP    WIND        PRES
                       AIR SEA DIR/SP/G
                 (UTC) (F)     (DEG/KT/KT) (MB)
THOMAS PT LIGHT  0900   74 79  200/  9/ 10 1021.7S
BALT KEY BRIDGE  0900   73     220/  4/  6 1021.0S
COVE POINT       0900   73     240/  4/  5 1021.2S
LEWISETTA        0900   74 80   CALM  /  1 1021.0R
SOLOMONS ISLAND  0900      81                N/A
PINEY POINT      0900          170/  3/  3   N/A

$$




USA.gov is the U.S. government's official web portal to all federal, state and local government web resources and services.